Regional Weather Roundup
Issued by NWS

Home | Current Version | Previous Version | Text Only | Print | Product List | Glossary On
Versions: 1 2 3 4 5 6 7 8 9 10 11 12 13 14 15 16 17 18 19 20 21 22 23 24 25 26 27 28 29 30 31 32 33 34 35 36 37 38 39 40 41 42 43 44 45 46 47 48 49 50
000
ASUS43 KOAX 300510
RWRNE

WEATHER ROUNDUP FOR NEBRASKA
NATIONAL WEATHER SERVICE OMAHA NE
1200 AM CDT SAT APR 30 2016

NOTES: SATELLITE DATA IS BEING USED TO AUGMENT CLOUD COVER ABOVE
       12000 FEET.
       "FAIR" INDICATES FEW OR NO CLOUDS BELOW 12,000 FEET WITH NO
       SIGNIFICANT WEATHER AND/OR OBSTRUCTIONS TO VISIBILITY.

  * THESE STATIONS DO NOT REPORT WEATHER SUCH AS RAIN...SNOW OR FOG.

NEZ001>004-019>022-054>056-300600-
NEBRASKA PANHANDLE

CITY           SKY/WX    TMP DP  RH WIND       PRES   REMARKS
SCOTTSBLUFF    LGT SNOW  33  31  92 N6        29.94F FOG     WCI  28
ALLIANCE       LGT SNOW  32  32 100 N12       29.92F VSB 1   WCI  23
CHADRON        LGT RAIN  38  35  89 NE13      29.99F WCI  30
KIMBALL        LGT SNOW  32  32 100 N8        29.90F WCI  25
SIDNEY         LGT SNOW  32  31  96 N12       29.89F VSB 3/4 WCI  23
$$

NEZ057>060-069>072-079>082-300600-
SOUTHWEST NEBRASKA

CITY           SKY/WX    TMP DP  RH WIND       PRES   REMARKS
NORTH PLATTE   RAIN      38  35  89 NE12      29.90F FOG     WCI  30
IMPERIAL       LGT SNOW  33  32  96 NE12      29.86F VSB 1   WCI  24
LEXINGTON      LGT RAIN  41  38  91 NE6       29.88F
MCCOOK         LGT RAIN  38  36  92 NE10      29.86F WCI  31
OGALLALA       LGT SNOW  33  32  96 NE13      29.88F WCI  24
$$

NEZ005>010-023>029-035>040-094-300600-
NORTH CENTRAL NEBRASKA

CITY           SKY/WX    TMP DP  RH WIND       PRES   REMARKS
VALENTINE      CLOUDY    39  37  92 NE12      29.98F WCI  32
AINSWORTH      DRIZZLE   39  39  97 NE12G17   29.95F WCI  32
BROKEN BOW     LGT RAIN  40  38  93 NE23G30   29.85F FOG     WCI  30
O`NEILL        CLOUDY    42  39  88 NE16G23   29.97F
ORD            CLOUDY    41  39  93 NE20G30   29.89F
THEDFORD       RAIN      39  38  96 NE13      29.94F WCI  31
$$

NEZ041-046>049-061>064-073>077-083>087-300600-
SOUTH CENTRAL NEBRASKA

CITY           SKY/WX    TMP DP  RH WIND       PRES   REMARKS
GRAND ISLAND   RAIN      43  41  93 NE22G30   29.85F FOG
AURORA         LGT RAIN  44  42  95 NE25      29.85F
HASTINGS       RAIN      43  41  93 NE17G25   29.82S FOG
HEBRON         LGT RAIN  46  45  97 NE17G26   29.77F
HOLDREGE       LGT RAIN  41  40  96 NE6       29.85F
KEARNEY *      CLOUDY    43  39  87 NE22G29   29.85R
YORK           LGT RAIN  45  41  87 NE21G30   29.85F
$$

NEZ011>018-030>034-042>045-300600-
NORTHEAST NEBRASKA

CITY           SKY/WX    TMP DP  RH WIND       PRES   REMARKS
NORFOLK        CLOUDY    43  38  82 NE13      29.95F
ALBION         CLOUDY    42  39  88 NE17      29.92F
BLAIR          LGT RAIN  46  43  90 NE13G21   29.92F
FREMONT        LGT RAIN  45  42  91 NE14G20   29.92F
TEKAMAH        LGT RAIN  46  41  82 NE16      29.95F
WAYNE          CLOUDY    44  40  86 NE13      29.99S
$$

NEZ050>053-065>068-078-088>093-300600-
SOUTHEAST NEBRASKA

CITY           SKY/WX    TMP DP  RH WIND       PRES   REMARKS
LINCOLN        LGT RAIN  47  42  83 E17       29.88F
OMAHA EPPLEY   LGT RAIN  47  43  86 NE16G22   29.91F
BEATRICE       LGT RAIN  46  45  96 NE17G23   29.81F
FALLS CITY     CLOUDY    49  46  90 E17G28    29.79F
NEBRASKA CITY  LGT RAIN  47  46  96 E18G25    29.86F
PLATTSMOUTH    CLOUDY    47  43  87 NE13G22   29.89S
$$

NEZ044-045-051>053-067-300600-
OMAHA AREA

CITY           SKY/WX    TMP DP  RH WIND       PRES   REMARKS
OMAHA EPPLEY   LGT RAIN  47  43  86 NE16G22   29.91F
BLAIR          LGT RAIN  46  43  90 NE13G21   29.92F
FREMONT        LGT RAIN  45  42  91 NE14G20   29.92F
MILLARD        CLOUDY    48  42  80 NE5       29.91F
OFFUTT AFB     CLOUDY    47  44  86 NE16G25   29.88F
PLATTSMOUTH    CLOUDY    47  43  87 NE13G22   29.89S
WAHOO          LGT RAIN  46  43  89 NE17      29.90F
$$




USA.gov is the U.S. government's official web portal to all federal, state and local government web resources and services.